Dallas, TX

8:50 AM CST on February 24, 2017 (GMT -0600)
Dallas-Fort Worth International

Weather History for KDFW - February, 2015

Change the Weather History Date:

Thursday, February 12, 2015

  Actual Average Record
Temperature  
Mean Temperature 46 °F 49 °F  
Max Temperature 55 °F 60 °F 84 °F (1962)
Min Temperature 36 °F 39 °F -8 °F (1899)
Degree Days  
Heating Degree Days 19 16  
Month to date heating degree days 192 204  
Since 1 July heating degree days 1691 1709  
Cooling Degree Days 0 0  
Month to date cooling degree days 0 0  
Year to date cooling degree days 0 2  
Moisture  
Dew Point 25 °F    
Average Humidity 46    
Maximum Humidity 64    
Minimum Humidity 28    
Precipitation  
Precipitation 0.00 in 0.11 in 2.90 in (1997)
Month to date precipitation 0.10 1.06  
Year to date precipitation 3.72 3.19  
Snow  
Snow 0.00 in 0.00 in 1.50 in (1901)
Month to date snowfall 0.0 0.4  
Since 1 July snowfall T 0.9  
Snow Depth 0.00 in    
Sea Level Pressure  
Sea Level Pressure 30.39 in    
Wind  
Wind Speed 11 mph (North)    
Max Wind Speed 23 mph    
Max Gust Speed 30 mph    
Visibility 10 miles    
Events      
T = Trace of Precipitation, MM = Missing Value Source: NWS Daily Summary

Daily Weather History Graph

Daily Weather History Graph

Search for Another Location

Airport or City:

Trip Planner

Search our weather history database for the weather conditions in past years. The results will help you decide how hot, cold, wet, or windy it might be!

Date:

Astronomy

Feb. 12, 2015 Rise Set
Actual Time 7:14 AM CST 6:10 PM CST
Civil Twilight 6:49 AM CST 6:36 PM CST
Nautical Twilight 6:20 AM CST 7:05 PM CST
Astronomical Twilight 5:51 AM CST 7:33 PM CST
Moon 1:15 AM CST (2/12) 12:11 PM CST (2/12)
Length of Visible Light 11h 46m
Length of Day
10h 56m
Last Quarter, 44% of the Moon is Illuminated
Feb 12
Last Quarter
Feb 18
New
Feb 25
First Quarter
Mar 5
Full
Mar 13
Last Quarter

Hourly Weather History & Observations

Time (CST) Temp. Windchill Dew Point Humidity Pressure Visibility Wind Dir Wind Speed Gust Speed Precip Events Conditions
12:53 AM 44.1 °F 36.2 °F 30.0 °F 58% 30.33 in 10.0 mi North 18.4 mph 24.2 mph N/A   Partly Cloudy
1:53 AM 43.0 °F 35.1 °F 27.0 °F 53% 30.32 in 10.0 mi NNE 17.3 mph - N/A   Scattered Clouds
2:53 AM 42.8 °F 34.8 °F 26.6 °F 53% 30.35 in 10.0 mi North 17.3 mph - N/A   Mostly Cloudy
3:53 AM 41.0 °F 33.9 °F 27.0 °F 57% 30.37 in 10.0 mi North 12.7 mph 21.9 mph N/A   Mostly Cloudy
4:53 AM 39.0 °F 31.4 °F 27.0 °F 62% 30.37 in 10.0 mi North 12.7 mph - N/A   Scattered Clouds
5:53 AM 37.4 °F 29.3 °F 26.6 °F 65% 30.39 in 10.0 mi North 12.7 mph - N/A   Scattered Clouds
6:53 AM 37.0 °F 29.8 °F 26.1 °F 65% 30.42 in 10.0 mi North 10.4 mph - N/A   Scattered Clouds
7:53 AM 37.9 °F 29.6 °F 26.1 °F 62% 30.44 in 10.0 mi North 13.8 mph - N/A   Partly Cloudy
8:53 AM 39.9 °F 30.8 °F 21.9 °F 49% 30.46 in 10.0 mi North 18.4 mph 27.6 mph N/A   Partly Cloudy
9:53 AM 42.1 °F 33.3 °F 19.0 °F 40% 30.48 in 10.0 mi NNE 19.6 mph - N/A   Clear
10:53 AM 46.9 °F - 19.0 °F 33% 30.49 in 10.0 mi NNE 13.8 mph 19.6 mph N/A   Clear
11:53 AM 48.9 °F - 19.0 °F 31% 30.47 in 10.0 mi NNE 13.8 mph - N/A   Clear
12:53 PM 51.1 °F - 19.9 °F 29% 30.44 in 10.0 mi NNE 15.0 mph - N/A   Clear
1:53 PM 53.1 °F - 23.0 °F 31% 30.40 in 10.0 mi North 12.7 mph - N/A   Partly Cloudy
2:53 PM 54.0 °F - 25.0 °F 33% 30.39 in 10.0 mi North 10.4 mph - N/A   Partly Cloudy
3:53 PM 55.0 °F - 26.1 °F 33% 30.37 in 10.0 mi North 8.1 mph - N/A   Partly Cloudy
4:53 PM 54.0 °F - 27.0 °F 35% 30.36 in 10.0 mi North 9.2 mph - N/A   Partly Cloudy
5:53 PM 50.0 °F - 27.0 °F 41% 30.35 in 10.0 mi North 6.9 mph - N/A   Partly Cloudy
6:53 PM 46.9 °F - 27.0 °F 46% 30.37 in 10.0 mi North 9.2 mph - N/A   Scattered Clouds
7:53 PM 46.0 °F 43.1 °F 26.1 °F 46% 30.37 in 10.0 mi NNE 5.8 mph - N/A   Partly Cloudy
8:53 PM 44.6 °F 43.1 °F 26.6 °F 49% 30.36 in 10.0 mi NE 3.5 mph - N/A   Partly Cloudy
9:53 PM 46.9 °F - 26.1 °F 44% 30.37 in 10.0 mi Calm Calm - N/A   Partly Cloudy
10:53 PM 43.0 °F - 26.1 °F 51% 30.35 in 10.0 mi Calm Calm - N/A   Partly Cloudy
11:53 PM 43.0 °F - 26.1 °F 51% 30.37 in 10.0 mi Calm Calm - N/A   Partly Cloudy